Tracking 18980 objects as of 23-Feb-2018
HD Live streaming from Space Station
objects crossing your sky now

NOAA 16 DEB

Track NOAA 16 DEB now!
10-day predictions


NORAD ID: 41301
Int'l Code: 2000-055HD
Perigee: 854.4 km
Apogee: 896.5 km
Inclination: 98.8 °
Period: 102.3 minutes
Semi major axis: 7246 km
RCS: Unknown
Launch date: September 21, 2000
Source: United States (US)
Launch site: AIR FORCE WESTERN TEST RANGE (AFWTR)

Note: This is SATELLITE DEBRIS
aabbcc
Your satellite tracking list
Your tracking list is empty




NASA's NSSDC Master Catalog

Two Line Element Set (TLE):
1 41301U 00055HD  18050.94817996  .00000839  00000-0  52243-3 0  9995
2 41301  98.8254 114.6594 0029072 177.6853 182.4456 14.07385602110585
Source of the keplerian elements: AFSPC